Location: Blangy-Tronville
(49.8790°N, 2.4226°E)
Time: 00:04:15
(UTC+00:00)

Cosmos 1627 Rocket - Pass Details

Date: 18 November 2025
Orbit: 949 x 1003 km, 82.9° (Epoch: 05 December)

Event Time Altitude Azimuth Distance (km) Brightness Sun altitude
Rises 18:45:18 0° 349° (N) 3,635 7.6 -25.9°
Reaches altitude 10° 18:47:48 10° 348° (NNW) 2,688 6.9 -26.3°
Maximum altitude 18:53:56 80° 263° (W) 977 4.5 -27.3°
Drops below altitude 10° 19:00:05 10° 178° (S) 2,693 6.7 -28.2°
Sets 19:02:35 0° 177° (S) 3,643 7.4 -28.6°
